Location: B?ogocice
(50.2413°N, 20.2361°E)
Time: 23:55:25
(UTC+00:00)

Cosmos 1812 - Pass Details

Date: 15 June 2024
Orbit: 464 x 470 km, 82.5° (Epoch: 18 July)

Event Time Altitude Azimuth Distance (km) Brightness Sun altitude
Rises 01:07:28 0° 355° (N) 2,540 7.1 -9.5°
Reaches altitude 10° 01:09:40 10° 3° (N) 1,654 6.3 -9.3°
Maximum altitude 01:13:06 40° 75° (ENE) 712 3.9 -9.0°
Drops below altitude 10° 01:16:29 10° 146° (SE) 1,631 5.0 -8.7°
Sets 01:18:33 0° 154° (SSE) 2,469 5.9 -8.5°
